Location: Unspecified
(0.0000°N, 0.0000°E)
Time: 17:57:23
(UTC+00:00)

USA 225 - Pass Details

Date: 02 June 2019
Orbit: 1207 x 1227 km, 90.0° (Epoch: 13 January)

Event Time Altitude Azimuth Distance (km) Brightness Sun altitude
Rises 20:58:17 0° 13° (NNE) 4,136 ? -40.9°
Reaches altitude 10° 21:01:00 10° 18° (NNE) 3,174 ? -41.5°
Enters shadow 21:01:12 11° 18° (NNE) 3,105 ? -41.6°
